Location: Barrio de Canyet
(41.4665°N, 2.2381°E)
Time: 09:08:45
(UTC+00:00)

Cosmos 2322 Rocket - Pass Details

Date: 09 April 2020
Orbit: 834 x 849 km, 71.0° (Epoch: 03 June)

Event Time Altitude Azimuth Distance (km) Brightness Sun altitude
Rises 23:19:33 0° 337° (NNW) 3,399 6.2 -39.9°
Reaches altitude 10° 23:22:01 10° 339° (NNW) 2,459 5.3 -40.0°
Enters shadow 23:24:03 23° 342° (NNW) 1,710 4.2 -40.1°
